Location: *
(60.1759°S, 155.0663°W)
Time: 04:40:00
(UTC+00:00)

SJ-12 - Pass Details

Date: 17 September 2019
Orbit: 568 x 586 km, 97.6° (Epoch: 23 October)

Event Time Altitude Azimuth Distance (km) Brightness Sun altitude
Rises 15:02:37 0° 357° (N) 2,797 7.2 -10.8°
Reaches altitude 10° 15:04:51 10° 349° (N) 1,908 6.3 -10.5°
Maximum altitude 15:08:46 41° 278° (W) 866 4.3 -10.1°
Drops below altitude 10° 15:12:47 10° 206° (SSW) 1,941 6.5 -9.6°
Sets 15:15:04 0° 199° (SSW) 2,852 7.4 -9.3°
